-> Other stations

1455

Speed(max): 0(0)knots
Direction:167° ( SSE)
Temperature: 19.3°C
Arrived: 2026-09-04 23:03:25 CEST

Past data:
hh:mmknots
Dir (°)
°C
23:01 0 0 S(169) 19.3
22:59 0 0 S(169) 19.3
22:57 0 0 SSE(165) 19.5
22:55 0 0 SSE(168) 19.3
22:53 0 0 SSE(167) 19.3
22:51 0 0 SSE(166) 19.2
22:49 0 0 S(170) 19.5
22:47 0 0 SSE(166) 19.5
22:45 0 0 S(170) 19.5
22:43 0 0 S(169) 19.3
22:41 0 0 S(171) 19.3
22:39 0 0 S(169) 19.2
22:37 0 0 S(169) 19.3
22:35 0 0 SSE(168) 19.3
15 min. averages:
hh:mmknots
Dir (°)
°C
23:00 0 0 SSE(168) 19.4
22:45 0 0 S(169) 19.3
22:30 0 0 SSE(168) 19.6
22:15 0 0 S(169) 19.8
22:00 0 0 S(169) 20.2
21:45 0 0 SSE(168) 20.2
21:30 0 0 SSE(168) 20.6
21:15 0 0 S(169) 21.1
21:00 0 0 SSE(168) 21.3
20:45 0 0 S(169) 21.8
20:30 0 0 SSE(168) 22.5
20:15 0 0 SSE(168) 23.3
20:00 0 0 SSE(168) 23.9
19:45 0 1.1 S(169) 25.0
19:30 0.5 1.6 S(169) 26.5
Stations at HR:
1455
-> Other regions

Desktop view
Data provided by Holfuy.
© Holfuy Weather 2026